This demonstration page uses our WeatherBlox Daily Observations layout. Learn more.

Left ArrowRight Arrow

53.62937, 11.41316

Hourly Observations for April 27, 2016

Temp ( °F °C ) Dew Point ( °F °C ) Humidity (%) Winds ( mph kmh ) Pressure ( in mb ) Visibility ( mi km ) Precip ( " mm )
6:20 am 06:20 Mostly Cloudy with Light Rain 37 3 36 2 93 93 S 8 13 29.41 996 5 8 N/A
6:50 am 06:50 Mostly Cloudy with Light Rain 37 3 36 2 93 93 S 12 19 29.41 996 6 9 N/A
7:20 am 07:20 Mostly Cloudy with Light Rain 37 3 36 2 93 93 S 14 22 29.41 996 6 9 N/A
7:50 am 07:50 Mostly Cloudy 37 3 36 2 93 93 S 12 19 29.41 996 30 48 N/A
8:20 am 08:20 Mostly Cloudy 37 3 36 2 93 93 S 13 20 29.41 996 30 48 N/A
8:50 am 08:50 Mostly Cloudy with Light Rain 37 3 36 2 93 93 SW 15 24 29.44 997 4 7 N/A
9:20 am 09:20 Mostly Cloudy with Light Rain 37 3 36 2 93 93 SW 16 26 29.44 997 6 9 N/A
9:50 am 09:50 Mostly Cloudy with Drizzle 37 3 36 2 93 93 WSW 18 30 29.47 998 30 48 N/A
10:20 am 10:20 Mostly Cloudy 37 3 36 2 93 93 WSW 18 30 29.47 998 30 48 N/A
10:50 am 10:50 Mostly Cloudy 37 3 36 2 93 93 SW 16 26 29.50 999 30 48 N/A
11:20 am 11:20 Mostly Cloudy 39 4 36 2 87 87 SW 15 24 29.50 999 30 48 N/A
11:50 am 11:50 Mostly Cloudy 43 6 37 3 81 81 SW 14 22 29.50 999 30 48 N/A
12:20 pm 12:20 Mostly Cloudy 43 6 36 2 76 76 SW 17 28 29.50 999 30 48 N/A
12:50 pm 12:50 Mostly Cloudy 41 5 36 2 81 81 SW 14 22 29.53 1000 30 48 N/A
1:20 pm 13:20 Mostly Cloudy 41 5 36 2 81 81 SW 7 11 29.53 1000 30 48 N/A
1:50 pm 13:50 Mostly Cloudy with Light Rain 39 4 36 2 87 87 WSW 18 30 29.53 1000 30 48 N/A
2:01 pm 14:01 Partly Cloudy 39 4 36 2 87 87 S 12 19 29.53 1000 30 48 N/A
2:20 pm 14:20 Partly Cloudy 43 6 37 3 81 81 SSE 7 11 29.53 1000 30 48 N/A
2:50 pm 14:50 Partly Cloudy 46 8 39 4 76 76 S 9 15 29.53 1000 30 48 N/A
3:20 pm 15:20 Partly Cloudy 45 7 36 2 71 71 SSW 14 22 29.53 1000 30 48 N/A
3:50 pm 15:50 Mostly Cloudy 46 8 36 2 66 66 SSW 13 20 29.53 1000 30 48 N/A
4:20 pm 16:20 Mostly Cloudy 45 7 37 3 76 76 SSW 12 19 29.56 1001 30 48 N/A
4:50 pm 16:50 Partly Cloudy 46 8 37 3 71 71 S 9 15 29.56 1001 30 48 N/A
5:20 pm 17:20 Mostly Cloudy with Showers Nearby 46 8 36 2 66 66 S 12 19 29.56 1001 30 48 N/A
5:50 pm 17:50 Mostly Cloudy with Showers Nearby 45 7 36 2 71 71 SSW 12 19 29.56 1001 30 48 N/A
6:20 pm 18:20 Mostly Cloudy with Light Showers 36 2 34 1 93 93 W 14 22 29.59 1002 4 6 N/A
6:50 pm 18:50 Mostly Cloudy 37 3 36 2 93 93 SW 3 6 29.59 1002 30 48 N/A

Powered by AerisWeather